Regional Weather Roundup
Issued by NWS

Home | Current Version | Previous Version | Text Only | Print | Product List | Glossary Off
Versions: 1 2 3 4 5 6 7 8 9 10 11 12 13 14 15 16 17 18 19 20 21 22 23 24 25 26 27 28 29 30 31 32 33 34 35 36 37 38 39 40 41 42 43 44 45 46 47 48 49 50

909
ASUS43 KIND 300859
RWRIN

WEATHER ROUNDUP FOR INDIANA
NATIONAL WEATHER SERVICE INDIANAPOLIS IN
500 AM EDT SUN APR 30 2017

NOTE: "FAIR" INDICATES FEW OR NO CLOUDS BELOW 12,000 FEET WITH NO
SIGNIFICANT WEATHER AND/OR OBSTRUCTIONS TO VISIBILITY.

* - STATION DOES NOT REPORT WEATHER SUCH AS PRECIPITATION OR FOG.

+ - STATION NOT QUALITY CONTROLLED BY THE NATIONAL WEATHER SERVICE.
    USE DATA WITH CAUTION...ESPECIALLY DEWPOINT AND RELATIVE
    HUMIDITY OBSERVATIONS.

INZ001>003-010>013-019-020-301000-
NORTHWEST INDIANA

CITY           SKY/WX    TMP DP  RH WIND       PRES   REMARKS
MONTICELLO +   LGT RAIN  50  48  95 E7        29.89S
VALPARAISO     LGT RAIN  47  45  93 E15       29.91R

$$

LMZ046-743>745-301000-
SOUTHERN LAKE MICHIGAN

STATION/POSITION TIME  TEMP    WIND        PRES    WAVE
                       AIR SEA DIR/SP/G            HT
                 (UTC) (F)     (DEG/KT/KT) (MB)    (FT)
BURNS HARBOR     0840   47      CALM  /  1 1013.5S
MICHIGAN CITY    0830   45      60/  4/  5   N/A
5NW MICH CITY    0850   46 47                N/A     5

$$

INZ004-005-014>016-021>024-301000-
NORTH CENTRAL INDIANA

CITY           SKY/WX    TMP DP  RH WIND       PRES   REMARKS
GOSHEN         CLOUDY    45  40  82 NE13      29.95S
PERU/GRISSOM   CLOUDY    48  48 100 NE8       29.89R
SOUTH BEND     LGT RAIN  44  41  89 E15       29.95S

$$

INZ006>009-017-018-025>027-301000-
NORTHEAST INDIANA

CITY           SKY/WX    TMP DP  RH WIND       PRES   REMARKS
ANGOLA *+      CLOUDY    43  37  81 E16       29.96R
FORT WAYNE     CLOUDY    46  42  86 E13       29.94S
KENDALLVILLE + CLOUDY    43  41  93 E9        29.96R

$$

INZ028-029-035-036-043>045-051>053-301000-
WEST CENTRAL INDIANA

CITY           SKY/WX    TMP DP  RH WIND       PRES   REMARKS
GREENCASTLE +  CLOUDY    61  61 100 SE5       29.88R FOG
LAFAYETTE      LGT RAIN  56  56 100 E12       29.85F
TERRE HAUTE    CLOUDY    63  61  93 E6        29.85R

$$

INZ030>032-037>040-046>048-054>057-064-065-301000-
CENTRAL INDIANA

CITY           SKY/WX    TMP DP  RH WIND       PRES   REMARKS
CP ATTERBURY + MOCLDY    59  55  88 CALM      29.88F
INDIANAPOLIS   CLOUDY    57  56  96 E3        29.87F
-EAGLE CREEK   CLOUDY    57  55  93 CALM      29.87F
KOKOMO +       CLOUDY    49  48  97 E8        29.90F
SHELBYVILLE    PTCLDY    58  53  84 E13       29.87F

$$

INZ033-034-041-042-049-050-058-059-301000-
EAST CENTRAL INDIANA

CITY           SKY/WX    TMP DP  RH WIND       PRES   REMARKS
MUNCIE         CLOUDY    51  48  89 SE13      29.91S
RICHMOND +     MOCLDY    50  50 100 E12       29.94F FOG

$$

INZ060-061-067>069-081>083-085>088-301000-
SOUTHWEST INDIANA

CITY           SKY/WX    TMP DP  RH WIND       PRES   REMARKS
EVANSVILLE       N/A    N/A N/A N/A MISG      29.82F

$$

INZ062-063-066-070>080-084-089>092-301000-
SOUTH CENTRAL AND SOUTHEAST INDIANA

CITY           SKY/WX    TMP DP  RH WIND       PRES   REMARKS
BLOOMINGTON    CLOUDY    64  61  90 SE5       29.86F
MADISON *+     PTCLDY    70  63  78 SE6       29.92F
SEYMOUR +      PTCLDY    63  61  94 CALM      29.88F

$$





USA.gov is the U.S. government's official web portal to all federal, state and local government web resources and services.